| time (UTC) | temp F | wind direction | speed MPH | gust MPH | rain 1hr in | rain 24hr in | rain mn in | humidity % | barometer mb |
| 20260902234512 | 62 | 189 | 0.0 | 8.0 | 0.00 | 0.19 | 0.18 | 79 | 1006.4 |
| 20260902233004 | 62 | 219 | 4.0 | 9.0 | 0.00 | 0.19 | 0.18 | 78 | 1006.5 |
| 20260902231511 | 61 | 207 | 3.0 | 7.0 | 0.00 | 0.19 | 0.18 | 75 | 1006.4 |
| 20260902230002 | 60 | 174 | 2.0 | 7.0 | 0.00 | 0.19 | 0.18 | 75 | 1006.3 |
| 20260902224501 | 60 | 138 | 1.0 | 10.0 | 0.00 | 0.19 | 0.18 | 75 | 1006.2 |
| 20260902223002 | 59 | 209 | 4.0 | 9.0 | 0.00 | 0.19 | 0.18 | 75 | 1006.1 |
| 20260902221604 | 59 | 214 | 2.0 | 11.0 | 0.00 | 0.19 | 0.18 | 75 | 1006.0 |
| 20260902214623 | 59 | 175 | 5.0 | 14.0 | 0.01 | 0.19 | 0.18 | 74 | 1005.8 |
| 20260902213058 | 58 | 186 | 3.0 | 8.0 | 0.01 | 0.19 | 0.18 | 74 | 1005.8 |
| 20260902211558 | 58 | 180 | 4.0 | 15.0 | 0.02 | 0.19 | 0.18 | 74 | 1005.8 |
| 20260902210121 | 58 | 142 | 3.0 | 13.0 | 0.02 | 0.19 | 0.18 | 74 | 1005.9 |
| 20260902204601 | 58 | 186 | 4.0 | 12.0 | 0.01 | 0.18 | 0.17 | 75 | 1005.7 |
| 20260902203100 | 58 | 139 | 5.0 | 14.0 | 0.01 | 0.18 | 0.17 | 76 | 1005.6 |
| 20260902201554 | 58 | 93 | 5.0 | 15.0 | 0.01 | 0.17 | 0.16 | 76 | 1005.4 |
| 20260902200106 | 58 | 139 | 4.0 | 9.0 | 0.04 | 0.17 | 0.16 | 76 | 1005.5 |
| 20260902194559 | 58 | 155 | 1.0 | 7.0 | 0.05 | 0.17 | 0.16 | 76 | 1005.8 |
| 20260902193050 | 58 | 161 | 1.0 | 10.0 | 0.06 | 0.17 | 0.16 | 77 | 1005.9 |
| 20260902191558 | 58 | 145 | 4.0 | 10.0 | 0.06 | 0.16 | 0.15 | 78 | 1006.1 |
| 20260902190109 | 58 | 134 | 2.0 | 6.0 | 0.04 | 0.13 | 0.12 | 77 | 1006.3 |
| 20260902184558 | 58 | 132 | 1.0 | 6.0 | 0.04 | 0.11 | 0.10 | 78 | 1006.2 |
| 20260902183046 | 58 | 154 | 2.0 | 7.0 | 0.06 | 0.11 | 0.10 | 78 | 1006.3 |
| 20260902181558 | 58 | 154 | 0.0 | 5.0 | 0.07 | 0.10 | 0.09 | 79 | 1006.6 |
| 20260902180044 | 58 | 184 | 0.0 | 8.0 | 0.07 | 0.10 | 0.08 | 79 | 1006.9 |
| 20260902174544 | 59 | 159 | 0.0 | 4.0 | 0.06 | 0.08 | 0.06 | 79 | 1006.9 |
| 20260902173042 | 59 | 148 | 1.0 | 4.0 | 0.04 | 0.06 | 0.04 | 80 | 1006.8 |
| 20260902171602 | 60 | 182 | 2.0 | 7.0 | 0.02 | 0.04 | 0.02 | 80 | 1006.7 |
| 20260902170040 | 60 | 189 | 2.0 | 8.0 | 0.01 | 0.03 | 0.01 | 80 | 1006.6 |
| 20260902164541 | 61 | 208 | 0.0 | 3.0 | 0.00 | 0.02 | 0.00 | 79 | 1006.5 |
| 20260902163038 | 61 | 155 | 0.0 | 3.0 | 0.00 | 0.02 | 0.00 | 79 | 1006.5 |
| 20260902161545 | 61 | 192 | 0.0 | 3.0 | 0.00 | 0.02 | 0.00 | 78 | 1006.4 |
| 20260902160042 | 61 | 214 | 1.0 | 7.0 | 0.00 | 0.02 | 0.00 | 77 | 1006.4 |
| 20260902154536 | 61 | 132 | 2.0 | 8.0 | 0.00 | 0.02 | 0.00 | 78 | 1006.6 |
| 20260902153031 | 60 | 176 | 0.0 | 4.0 | 0.00 | 0.02 | 0.00 | 79 | 1006.9 |
| 20260902151532 | 60 | 190 | 0.0 | 0.0 | 0.00 | 0.02 | 0.00 | 79 | 1006.9 |
| 20260902150128 | 60 | 190 | 0.0 | 0.0 | 0.00 | 0.02 | 0.00 | 79 | 1007.0 |
| 20260902144530 | 60 | 148 | 0.0 | 2.0 | 0.00 | 0.02 | 0.00 | 79 | 1007.1 |
| 20260902143024 | 59 | 153 | 0.0 | 3.0 | 0.00 | 0.02 | 0.00 | 79 | 1007.2 |
| 20260902141531 | 59 | 161 | 0.0 | 2.0 | 0.00 | 0.02 | 0.00 | 80 | 1007.4 |
| 20260902140021 | 59 | 137 | 0.0 | 1.0 | 0.00 | 0.02 | 0.00 | 80 | 1007.5 |
| 20260902134524 | 59 | 97 | 0.0 | 1.0 | 0.00 | 0.02 | 0.00 | 80 | 1007.7 |
| 20260902133027 | 59 | 159 | 0.0 | 1.0 | 0.00 | 0.02 | 0.00 | 80 | 1007.9 |
| 20260902131516 | 59 | 63 | 0.0 | 1.0 | 0.00 | 0.02 | 0.00 | 80 | 1008.1 |
| 20260902130015 | 59 | 169 | 0.0 | 0.0 | 0.00 | 0.02 | 0.00 | 80 | 1008.4 |
| 20260902124513 | 59 | 169 | 1.0 | 4.0 | 0.00 | 0.02 | 0.00 | 80 | 1008.6 |
| 20260902123011 | 59 | 149 | 3.0 | 9.0 | 0.00 | 0.02 | 0.00 | 80 | 1008.7 |
| 20260902121509 | 59 | 202 | 0.0 | 3.0 | 0.00 | 0.02 | 0.00 | 80 | 1009.1 |
| 20260902120005 | 59 | 218 | 0.0 | 2.0 | 0.00 | 0.02 | 0.00 | 81 | 1009.2 |
| 20260902114504 | 58 | 132 | 0.0 | 2.0 | 0.00 | 0.02 | 0.00 | 80 | 1009.3 |
| 20260902113002 | 58 | 232 | 0.0 | 0.0 | 0.00 | 0.02 | 0.00 | 81 | 1009.5 |
| 20260902111601 | 58 | 259 | 0.0 | 1.0 | 0.00 | 0.02 | 0.00 | 80 | 1009.6 |
| 20260902110059 | 58 | 177 | 0.0 | 0.0 | 0.00 | 0.02 | 0.00 | 80 | 1009.7 |
| 20260902104558 | 58 | 177 | 0.0 | 1.0 | 0.00 | 0.02 | 0.00 | 80 | 1009.8 |
| 20260902103056 | 57 | 155 | 0.0 | 2.0 | 0.00 | 0.02 | 0.00 | 79 | 1009.9 |
| 20260902101556 | 57 | 147 | 0.0 | 0.0 | 0.00 | 0.02 | 0.00 | 77 | 1009.8 |
| 20260902100054 | 56 | 233 | 0.0 | 0.0 | 0.00 | 0.02 | 0.00 | 77 | 1010.0 |
| 20260902094556 | 56 | 233 | 0.0 | 0.0 | 0.00 | 0.02 | 0.00 | 77 | 1010.0 |
| 20260902093050 | 56 | 207 | 0.0 | 0.0 | 0.00 | 0.02 | 0.00 | 76 | 1010.0 |
| 20260902091550 | 56 | 207 | 0.0 | 0.0 | 0.00 | 0.02 | 0.00 | 78 | 1010.3 |
| 20260902090148 | 56 | 207 | 0.0 | 0.0 | 0.00 | 0.02 | 0.00 | 78 | 1010.3 |
| 20260902084547 | 57 | 207 | 0.0 | 0.0 | 0.00 | 0.02 | 0.00 | 78 | 1010.6 |
| 20260902083044 | 57 | 207 | 0.0 | 0.0 | 0.00 | 0.02 | 0.00 | 76 | 1010.6 |
| 20260902081550 | 57 | 207 | 0.0 | 0.0 | 0.00 | 0.02 | 0.00 | 75 | 1010.7 |
| 20260902080042 | 57 | 207 | 0.0 | 0.0 | 0.00 | 0.02 | 0.00 | 75 | 1010.7 |
| 20260902074557 | 57 | 215 | 0.0 | 2.0 | 0.00 | 0.02 | 0.00 | 74 | 1010.8 |
| 20260902073038 | 56 | 281 | 0.0 | 0.0 | 0.00 | 0.02 | 0.00 | 74 | 1010.8 |
| 20260902071535 | 56 | 350 | 0.0 | 0.0 | 0.00 | 0.02 | 0.00 | 74 | 1011.0 |
| 20260902070033 | 56 | 350 | 0.0 | 0.0 | 0.00 | 0.02 | 0.02 | 74 | 1011.1 |
| 20260902064535 | 56 | 350 | 0.0 | 0.0 | 0.00 | 0.02 | 0.02 | 74 | 1011.1 |
| 20260902063054 | 56 | 265 | 0.0 | 0.0 | 0.00 | 0.02 | 0.02 | 75 | 1011.1 |
| 20260902061531 | 56 | 338 | 0.0 | 0.0 | 0.00 | 0.02 | 0.02 | 75 | 1011.1 |
| 20260902060030 | 56 | 338 | 0.0 | 0.0 | 0.00 | 0.02 | 0.02 | 76 | 1011.1 |
| 20260902054534 | 56 | 338 | 0.0 | 0.0 | 0.00 | 0.02 | 0.02 | 77 | 1011.2 |
| 20260902053030 | 56 | 17 | 0.0 | 0.0 | 0.00 | 0.02 | 0.02 | 77 | 1011.3 |
| 20260902051538 | 57 | 17 | 0.0 | 0.0 | 0.00 | 0.02 | 0.02 | 78 | 1011.2 |
| 20260902050031 | 57 | 17 | 0.0 | 0.0 | 0.00 | 0.02 | 0.02 | 79 | 1011.3 |
| 20260902044529 | 58 | 17 | 0.0 | 0.0 | 0.00 | 0.02 | 0.02 | 79 | 1011.4 |
| 20260902043027 | 58 | 17 | 0.0 | 0.0 | 0.00 | 0.02 | 0.02 | 80 | 1011.4 |
| 20260902041541 | 59 | 17 | 0.0 | 0.0 | 0.00 | 0.02 | 0.02 | 80 | 1011.5 |
| 20260902040027 | 60 | 17 | 0.0 | 0.0 | 0.00 | 0.02 | 0.02 | 80 | 1011.4 |
| 20260902034526 | 61 | 17 | 0.0 | 0.0 | 0.00 | 0.02 | 0.02 | 80 | 1011.4 |
| 20260902033025 | 62 | 17 | 0.0 | 0.0 | 0.00 | 0.02 | 0.02 | 80 | 1011.2 |
| 20260902031525 | 62 | 17 | 0.0 | 0.0 | 0.00 | 0.02 | 0.02 | 79 | 1011.1 |
| 20260902030024 | 62 | 17 | 0.0 | 0.0 | 0.00 | 0.02 | 0.02 | 79 | 1011.1 |
| 20260902024524 | 63 | 17 | 0.0 | 0.0 | 0.00 | 0.02 | 0.02 | 79 | 1011.1 |
| 20260902023023 | 63 | 17 | 0.0 | 0.0 | 0.00 | 0.02 | 0.02 | 79 | 1011.0 |
| 20260902021525 | 63 | 17 | 0.0 | 2.0 | 0.00 | 0.02 | 0.02 | 79 | 1011.1 |
| 20260902020023 | 64 | 350 | 0.0 | 6.0 | 0.00 | 0.02 | 0.02 | 78 | 1011.0 |
| 20260902014527 | 64 | 255 | 0.0 | 1.0 | 0.00 | 0.02 | 0.02 | 78 | 1010.9 |
| 20260902013021 | 64 | 336 | 0.0 | 2.0 | 0.00 | 0.02 | 0.02 | 78 | 1010.9 |
| 20260902011521 | 64 | 229 | 0.0 | 0.0 | 0.00 | 0.02 | 0.02 | 78 | 1010.8 |
| 20260902010021 | 64 | 229 | 0.0 | 2.0 | 0.00 | 0.02 | 0.02 | 79 | 1010.8 |
| 20260902004528 | 64 | 292 | 0.0 | 2.0 | 0.00 | 0.02 | 0.02 | 79 | 1010.7 |
| 20260902003050 | 64 | 336 | 0.0 | 0.0 | 0.00 | 0.02 | 0.02 | 79 | 1010.7 |
| 20260902001521 | 64 | 336 | 0.0 | 0.0 | 0.01 | 0.02 | 0.02 | 79 | 1010.7 |
| 20260902000030 | 63 | 344 | 0.0 | 0.0 | 0.01 | 0.02 | 0.02 | 79 | 1010.6 |